Wind_Speed
25 25 26 27 27 28 27 26 24 21 18 16 16 15 14 14 14 13 13 12 12 13 13 13 14 14 14 13 15 15 18 18 19 19 18 18 17 17 15 15 14 14 15 15
26 26 27 28 28 28 28 27 24 22 18 18 17 17 16 15 15 14 14 13 13 14 14 14 14 14 14 14 15 16 17 18 18 18 18 18 18 17 16 16 16 17 17 17
27 27 28 28 27 28 29 28 26 23 20 20 18 18 18 18 18 17 17 16 16 15 15 15 15 15 15 16 16 17 18 18 18 18 19 19 19 18 18 18 18 18 19 19
28 28 29 26 27 27 27 27 26 23 21 21 20 20 20 19 19 19 19 19 18 17 17 17 17 17 17 17 17 17 19 20 20 20 20 20 20 20 20 20 20 20 21 21
27 27 26 24 24 25 25 25 24 22 21 21 21 21 21 20 20 20 20 20 19 19 20 20 19 19 19 18 18 18 19 20 21 21 21 22 22 22 22 22 22 23 23 23
23 24 23 22 23 24 24 23 23 22 21 21 22 22 22 22 21 21 21 20 20 21 21 21 21 21 20 19 19 20 20 21 21 22 23 23 23 23 23 23 24 24 25 25
21 21 21 21 20 21 22 21 22 22 21 22 22 23 23 23 23 23 22 21 21 22 23 23 23 23 22 21 21 21 22 22 22 22 23 23 24 24 24 25 25 26 27 27
20 20 19 19 19 20 20 20 21 21 21 21 22 23 24 23 24 24 24 23 24 24 24 24 25 24 23 23 23 24 23 24 24 24 24 25 25 26 27 27 27 28 28 29
18 18 18 18 19 20 20 20 20 21 21 21 21 23 24 24 25 25 25 24 24 24 25 25 25 25 25 24 25 25 25 25 25 26 27 27 27 27 28 29 29 30 30 31
17 17 17 18 18 19 19 20 20 21 21 21 22 23 24 26 26 25 25 25 24 25 26 25 25 26 26 26 27 27 26 26 26 26 27 28 28 29 30 30 31 31 32 33
17 17 17 18 18 17 18 19 20 20 21 22 23 23 24 25 25 25 25 25 24 24 24 25 26 26 26 26 27 28 28 28 28 28 29 30 30 31 31 32 33 34 34 35
17 17 17 17 17 17 17 18 19 19 20 21 22 22 23 25 26 26 26 25 25 26 25 26 27 27 28 28 28 28 29 29 30 30 31 31 31 32 33 34 35 35 35 35
15 16 16 16 17 17 18 18 18 19 19 20 21 22 24 25 26 26 25 25 25 27 27 27 27 28 29 28 28 28 28 28 29 30 31 31 32 33 34 35 35 35 35 35
16 16 16 16 16 16 17 19 20 19 19 20 20 21 22 23 25 26 27 26 26 27 27 27 28 28 28 28 28 28 28 29 30 30 31 31 32 34 35 35 36 36 36 36
17 16 16 16 15 15 16 17 18 17 18 19 18 19 21 22 23 25 26 26 26 27 27 27 27 27 28 28 28 28 28 29 31 31 32 33 33 34 34 35 35 36 37 38
17 17 17 16 15 16 16 16 16 17 17 17 17 18 20 20 21 23 24 25 24 25 26 27 27 28 27 28 29 29 29 30 31 32 33 34 34 34 35 35 36 37 38 39
17 17 17 16 16 16 16 16 16 16 17 18 17 17 18 20 21 22 23 23 24 25 26 26 27 27 28 29 30 31 32 32 32 33 33 34 35 35 36 37 37 38 39 41
15 15 14 14 14 14 15 16 16 16 17 17 17 17 18 19 20 21 21 23 24 25 26 27 28 28 30 30 31 32 32 33 33 34 35 35 36 37 38 38 39 40 40 41
14 14 14 15 15 15 14 15 15 15 16 17 17 17 16 17 18 20 21 22 24 25 26 26 27 28 29 30 31 32 32 33 34 34 35 36 37 38 38 39 40 41 42 43
15 15 15 15 15 15 15 15 15 15 15 16 16 17 17 17 17 18 19 21 22 23 24 26 27 28 28 29 29 30 31 32 33 34 35 36 37 38 39 40 41 42 44 45
15 15 15 15 15 15 15 15 15 14 14 15 16 16 16 17 18 19 20 21 22 23 24 24 25 27 28 29 29 30 30 31 33 34 35 36 37 38 40 41 42 44 46 47
14 14 14 14 14 14 14 14 14 15 15 15 16 16 17 17 18 19 21 22 23 24 25 26 27 28 29 30 31 32 32 33 33 34 36 37 38 40 41 42 44 45 47 48
14 14 13 13 13 13 13 14 14 14 15 16 16 17 17 18 19 20 20 22 24 25 26 27 28 29 29 30 31 32 33 34 34 36 37 38 39 41 42 44 45 47 48 49
14 13 13 13 13 13 13 13 13 14 14 15 16 17 18 19 20 21 22 22 24 25 27 27 29 30 30 30 31 32 33 34 35 35 37 38 40 42 44 45 46 47 48 49
13 13 13 13 12 12 13 13 14 14 14 15 16 17 18 19 21 22 23 24 25 26 27 27 28 29 30 30 31 32 34 34 35 36 38 39 41 42 43 45 46 47 47 47
13 13 14 13 13 13 13 14 15 15 16 18 18 18 19 21 22 23 24 25 25 26 26 27 28 29 30 31 32 33 33 35 36 37 39 40 42 43 43 44 45 45 44 44
14 14 13 14 14 15 15 16 16 17 18 19 19 20 22 23 23 24 25 25 26 27 27 28 29 30 31 32 33 34 35 36 37 38 40 40 41 42 43 43 43 42 41 40
Wind_Direction
252 250 249 250 252 254 256 259 262 261 258 254 253 249 248 244 242 242 241 238 237 236 233 229 222 218 217 215 211 210 207 207 207 207 209 212 215 217 221 227 233 238 242 248
253 253 253 252 253 254 256 258 260 256 252 252 250 246 246 245 243 243 242 238 237 235 234 231 224 219 216 214 213 212 209 208 208 210 213 216 220 223 229 236 241 244 248 253
253 253 255 255 255 255 257 256 255 253 247 247 246 242 242 241 242 243 240 236 236 235 233 229 224 221 220 217 214 211 210 212 214 216 219 223 227 231 237 242 246 250 254 258
255 257 258 260 256 256 256 255 253 249 243 243 242 240 239 239 240 239 236 233 234 234 232 229 227 225 224 223 221 219 217 218 220 222 226 229 233 237 241 246 249 254 258 262
255 257 258 258 256 254 254 253 251 247 244 242 237 237 238 238 236 235 235 235 235 231 230 230 229 228 227 226 225 226 226 227 227 230 233 235 237 241 244 248 252 256 261 265
257 256 256 254 254 253 252 250 248 246 244 242 236 235 237 236 233 233 234 237 236 233 232 231 232 232 230 230 229 228 229 230 232 235 237 240 243 246 250 253 256 260 264 268
257 256 254 252 251 250 248 247 246 245 243 241 236 233 234 234 234 233 233 237 240 239 236 233 233 234 233 234 232 231 232 234 237 240 243 246 249 251 253 257 260 264 268 270
256 255 252 250 247 247 246 244 244 243 242 239 234 230 232 233 233 231 233 239 242 242 238 236 234 234 235 236 236 237 239 240 242 244 246 249 252 254 256 259 262 266 269 271
255 254 250 248 247 246 244 243 242 240 238 237 235 232 231 233 233 233 235 237 241 239 237 237 235 235 236 238 240 241 243 245 247 248 249 250 253 257 259 261 264 267 270 273
252 251 249 247 244 242 243 240 238 238 237 238 235 232 231 231 233 234 235 237 239 240 235 235 236 237 237 239 241 244 245 247 250 252 252 253 256 260 262 264 267 270 273 275
247 246 244 247 245 244 243 240 239 238 236 235 234 233 232 232 233 233 235 235 235 236 235 236 236 237 239 241 243 246 248 250 252 254 256 258 260 262 264 266 269 272 275 275
243 242 243 245 245 245 245 244 241 239 237 235 234 234 234 234 234 233 234 236 237 236 236 236 237 239 240 242 244 247 250 254 255 257 259 260 262 264 266 269 270 273 275 275
241 239 240 242 242 244 244 243 242 241 241 237 235 233 232 231 231 233 235 237 238 237 236 238 238 240 242 244 246 249 252 256 259 260 260 261 263 266 268 271 272 273 274 276
238 236 236 237 241 242 241 238 238 240 241 242 238 231 227 228 229 232 234 235 235 236 237 239 238 239 243 246 248 251 253 256 259 261 261 264 267 268 270 271 273 274 276 277
233 234 234 236 242 243 242 238 235 235 236 237 238 234 230 229 230 233 234 233 234 235 237 239 239 242 246 248 252 255 256 258 261 262 264 266 270 272 272 274 275 277 280 280
232 233 233 236 240 240 240 236 234 234 236 237 240 238 234 234 235 235 235 234 238 240 240 242 243 245 249 252 256 257 260 264 265 266 268 270 272 273 275 276 278 278 280 280
232 234 235 234 236 237 237 237 237 240 241 241 240 241 241 239 240 239 236 237 242 243 244 246 249 252 255 257 260 262 264 267 268 269 270 272 274 275 276 278 279 279 280 282
233 234 237 240 243 243 241 241 241 242 243 244 243 244 244 243 241 240 241 242 245 246 248 250 253 257 259 260 262 265 268 269 270 271 272 274 275 277 279 281 282 282 283 284
232 235 238 243 247 250 249 248 250 249 244 245 246 247 247 245 244 246 248 249 249 252 253 252 256 259 260 262 264 266 268 270 272 273 274 275 277 278 280 282 283 284 284 285
234 236 237 242 248 251 253 250 251 251 248 248 248 246 246 248 251 253 252 252 253 255 256 257 259 261 262 265 268 269 270 272 273 274 276 278 279 281 282 283 284 284 285 285
230 233 237 242 245 247 249 250 251 250 248 247 247 246 249 252 255 256 257 257 257 259 260 261 262 264 265 268 270 270 271 273 276 277 279 281 282 283 284 286 286 286 286 286
230 234 237 239 242 244 247 249 251 252 252 252 252 254 257 258 259 260 259 260 261 262 264 265 266 267 268 269 271 272 274 276 277 279 281 283 284 285 287 288 288 289 289 289
236 239 241 242 245 246 249 252 254 255 256 257 259 261 264 263 262 262 262 264 265 266 267 269 270 271 271 273 274 275 276 278 280 282 284 285 286 287 289 289 290 291 291 291
233 236 242 244 245 247 250 254 259 263 263 263 263 265 267 267 266 266 267 269 271 272 272 272 272 273 274 276 277 279 280 282 284 286 288 289 290 290 291 291 292 293 293 293
234 236 241 242 244 248 250 253 257 262 265 267 268 269 271 272 273 274 274 274 274 275 275 276 277 278 279 280 281 282 284 286 288 290 291 292 292 293 293 293 294 295 295 295
236 240 243 246 250 256 259 259 260 264 267 270 271 272 272 275 278 279 279 277 277 277 277 278 278 279 280 282 284 286 287 288 290 291 292 293 294 295 295 296 297 297 297 298
240 245 249 254 256 259 263 266 268 269 272 275 276 277 278 279 281 281 280 278 278 278 279 279 280 283 285 286 288 289 290 290 291 292 293 295 296 297 297 298 299 300 300 301
Height
5770 5772 5774 5776 5778 5780 5782 5784 5787 5790 5792 5794 5794 5796 5797 5798 5799 5800 5801 5802 5804 5806 5807 5808 5810 5811 5813 5813 5815 5818 5821 5823 5826 5830 5832 5835 5838 5840 5842 5844 5846 5847 5848 5850
5764 5765 5767 5769 5772 5774 5776 5778 5780 5783 5787 5788 5789 5791 5793 5794 5796 5797 5798 5800 5801 5803 5804 5805 5807 5809 5811 5812 5814 5816 5819 5822 5824 5827 5830 5833 5835 5837 5839 5841 5842 5844 5845 5846
5757 5758 5760 5762 5765 5767 5769 5771 5774 5777 5781 5782 5784 5786 5788 5790 5791 5793 5795 5796 5798 5800 5801 5802 5805 5807 5809 5810 5812 5814 5817 5819 5822 5825 5827 5830 5832 5834 5836 5837 5839 5840 5841 5842
5750 5753 5753 5758 5758 5759 5761 5764 5767 5770 5773 5776 5778 5780 5782 5785 5787 5788 5790 5792 5794 5796 5798 5799 5801 5804 5806 5807 5809 5812 5814 5816 5819 5821 5824 5826 5828 5830 5831 5833 5834 5835 5836 5837
5743 5745 5747 5749 5750 5752 5755 5758 5760 5764 5767 5770 5772 5775 5778 5780 5781 5783 5785 5788 5789 5791 5794 5796 5798 5800 5802 5804 5807 5809 5811 5813 5815 5818 5820 5822 5823 5825 5826 5828 5829 5830 5831 5831
5737 5739 5741 5744 5744 5745 5749 5752 5754 5757 5760 5763 5766 5770 5773 5774 5776 5778 5781 5783 5785 5787 5789 5792 5794 5796 5799 5801 5803 5805 5807 5809 5811 5813 5815 5817 5818 5819 5821 5822 5823 5824 5825 5825
5731 5732 5735 5737 5738 5740 5744 5747 5748 5750 5753 5756 5759 5763 5766 5768 5770 5773 5775 5778 5780 5782 5785 5787 5789 5792 5794 5797 5799 5801 5802 5804 5806 5808 5810 5811 5813 5814 5815 5816 5817 5817 5818 5818
5726 5727 5731 5731 5732 5735 5737 5739 5741 5744 5747 5750 5753 5756 5758 5761 5764 5767 5770 5772 5774 5777 5779 5781 5784 5787 5789 5791 5794 5795 5797 5798 5800 5802 5804 5805 5806 5807 5808 5809 5810 5810 5810 5810
5721 5724 5725 5726 5727 5729 5731 5733 5735 5738 5741 5744 5747 5749 5752 5755 5758 5761 5763 5766 5768 5770 5772 5775 5778 5781 5783 5786 5788 5790 5791 5793 5794 5796 5797 5798 5799 5800 5801 5801 5802 5802 5802 5802
5716 5717 5719 5720 5722 5723 5725 5727 5729 5732 5735 5738 5740 5743 5746 5749 5752 5755 5757 5759 5762 5764 5766 5769 5772 5774 5777 5779 5782 5784 5786 5787 5788 5789 5790 5791 5792 5792 5793 5793 5793 5794 5793 5793
5710 5712 5714 5715 5717 5718 5720 5721 5724 5726 5728 5731 5734 5737 5740 5743 5746 5748 5751 5753 5755 5758 5760 5763 5766 5768 5771 5773 5775 5778 5779 5780 5781 5782 5783 5784 5784 5784 5785 5785 5785 5785 5784 5783
5706 5707 5709 5711 5712 5713 5715 5716 5718 5720 5722 5725 5727 5730 5734 5737 5739 5742 5744 5747 5749 5752 5755 5757 5759 5762 5764 5766 5769 5771 5772 5773 5773 5774 5775 5776 5776 5776 5776 5776 5776 5775 5774 5773
5701 5702 5704 5706 5707 5708 5710 5711 5713 5715 5717 5719 5722 5724 5727 5730 5732 5735 5738 5741 5743 5746 5749 5751 5753 5755 5757 5759 5761 5763 5764 5765 5766 5766 5767 5767 5767 5767 5767 5767 5766 5765 5765 5764
5696 5698 5699 5701 5703 5704 5705 5706 5708 5710 5712 5714 5716 5718 5721 5724 5726 5729 5732 5734 5737 5740 5742 5744 5746 5748 5750 5752 5753 5755 5756 5757 5758 5758 5759 5759 5759 5759 5758 5757 5757 5755 5755 5753
5691 5693 5695 5697 5698 5700 5701 5702 5703 5704 5707 5709 5711 5713 5715 5718 5720 5723 5725 5728 5730 5732 5735 5737 5739 5741 5743 5745 5746 5747 5748 5749 5750 5750 5750 5750 5749 5749 5749 5748 5747 5745 5744 5743
5687 5689 5691 5693 5694 5695 5696 5698 5699 5701 5702 5704 5706 5708 5710 5712 5714 5716 5718 5721 5723 5725 5728 5730 5731 5734 5735 5737 5738 5739 5740 5740 5740 5741 5740 5740 5740 5739 5738 5737 5736 5735 5734 5732
5683 5685 5687 5688 5690 5691 5692 5693 5695 5697 5698 5700 5701 5703 5705 5707 5709 5711 5712 5715 5717 5719 5721 5723 5725 5727 5728 5729 5730 5731 5731 5732 5732 5731 5731 5730 5729 5728 5727 5726 5725 5723 5722 5720
5679 5681 5683 5684 5686 5687 5688 5689 5691 5692 5694 5695 5697 5699 5700 5702 5703 5705 5707 5709 5711 5713 5715 5716 5717 5719 5720 5721 5722 5722 5722 5722 5722 5721 5721 5720 5719 5718 5717 5715 5713 5711 5709 5707
5675 5677 5679 5681 5682 5683 5684 5685 5687 5688 5689 5691 5693 5694 5695 5697 5698 5700 5702 5703 5705 5706 5707 5708 5710 5711 5712 5712 5713 5713 5713 5712 5712 5711 5711 5710 5708 5707 5705 5704 5701 5699 5697 5695
5671 5673 5675 5677 5678 5679 5680 5681 5683 5684 5685 5687 5688 5689 5691 5692 5694 5695 5696 5697 5698 5699 5700 5701 5702 5703 5704 5704 5704 5703 5703 5702 5702 5701 5700 5699 5697 5696 5694 5692 5689 5687 5684 5682
5668 5670 5671 5673 5674 5675 5676 5677 5679 5680 5681 5682 5684 5685 5686 5687 5688 5689 5690 5691 5692 5692 5693 5694 5694 5695 5695 5695 5695 5694 5693 5693 5692 5691 5689 5688 5686 5684 5682 5679 5676 5673 5671 5667
5664 5666 5668 5669 5670 5672 5673 5674 5675 5676 5677 5678 5679 5680 5681 5682 5683 5683 5684 5684 5685 5685 5686 5686 5686 5686 5686 5686 5686 5685 5684 5683 5682 5680 5678 5676 5674 5671 5669 5666 5663 5660 5656 5653
5661 5663 5664 5665 5667 5667 5669 5670 5671 5672 5673 5673 5674 5675 5676 5677 5677 5677 5678 5678 5678 5678 5678 5678 5678 5678 5678 5677 5676 5675 5674 5672 5670 5669 5666 5664 5661 5659 5656 5653 5649 5646 5642 5638
5658 5659 5660 5661 5662 5663 5664 5665 5666 5667 5668 5669 5670 5670 5671 5671 5671 5671 5671 5671 5671 5671 5670 5670 5670 5669 5669 5668 5667 5665 5664 5662 5659 5657 5655 5652 5649 5646 5643 5639 5635 5631 5627 5623
5654 5655 5657 5658 5658 5659 5660 5661 5662 5663 5664 5664 5665 5665 5665 5665 5665 5665 5664 5664 5663 5663 5662 5661 5661 5660 5659 5658 5657 5655 5653 5651 5649 5646 5644 5641 5637 5634 5630 5626 5622 5618 5613 5609
5651 5652 5653 5654 5655 5656 5657 5657 5658 5659 5659 5659 5659 5659 5659 5659 5658 5657 5657 5655 5655 5654 5653 5652 5651 5651 5650 5648 5647 5645 5643 5640 5638 5635 5632 5629 5625 5621 5617 5613 5609 5604 5600 5596
5647 5648 5650 5650 5651 5652 5652 5653 5653 5653 5654 5654 5653 5653 5652 5652 5651 5650 5649 5648 5647 5646 5645 5644 5643 5642 5640 5638 5636 5634 5632 5629 5627 5623 5620 5617 5613 5609 5605 5601 5596 5592 5588 5584